Regional Weather Roundup
Issued by NWS Albany, NY

Home | Current Version | Previous Version | Text Only | Print | Product List | Glossary On
Versions: 1 2 3 4 5 6 7 8 9 10 11 12 13 14 15 16 17 18 19 20 21 22 23 24 25 26 27 28 29 30 31 32 33 34 35 36 37 38 39 40 41 42 43 44 45 46 47 48 49 50
453
ASUS41 KALY 251310
RWRALY

NEW YORK STATE HOURLY WEATHER ROUNDUP
NATIONAL WEATHER SERVICE ALBANY NY
900 AM EDT THU MAY 25 2017

NOTE: "FAIR" INDICATES FEW OR NO CLOUDS BELOW 12,000 FEET WITH NO
SIGNIFICANT WEATHER AND/OR NO OBSTRUCTIONS TO VISIBILITY.

NYZ032-033-038>043-046>054-057>066-NYZ062>081-082-084-251400-
EAST


CITY           SKY/WX    TMP DP  RH WIND       PRES   REMARKS
ALBANY         LGT RAIN  60  48  64 E3        29.76F
GLENS FALLS    NOT AVBL
POUGHKEEPSIE   LGT RAIN  56  52  86 E9        29.69F
NEWBURGH       LGT RAIN  55  55 100 E12G18    29.71F FOG
MONTGOMERY     LGT RAIN  56  53  90 NE9       29.70S
WHITE PLAINS   LGT RAIN  55  53  93 E17G25    29.68F
ISLIP          LGT RAIN  55  55 100 E16G22    29.69F
NEW YORK CITY  LGT RAIN  58  55  90 NE13      29.66S FOG
CENTRAL PARK   RAIN      56  55  97 E8G17     29.68S FOG
$$

NYZ005>009-017-018-044>046-055-056-251400-
CENTRAL


CITY           SKY/WX    TMP DP  RH WIND       PRES   REMARKS
FULTON         CLOUDY    59  49  69 E8        29.63F
SYRACUSE       LGT RAIN  57  50  77 E16G24    29.63F
ROME           LGT RAIN  57  49  74 E21G28    29.71F
ELMIRA         RAIN      56  52  86 E9G18     29.57F FOG
BINGHAMTON     LGT RAIN  52  51  97 SE10      29.62F
MONTICELLO     CLOUDY    52  50  93 E16G23    29.68F
$$

NYZ026>034-041>043-087-251400-
NORTH


CITY           SKY/WX    TMP DP  RH WIND       PRES   REMARKS
WATERTOWN      LGT RAIN  59  55  87 NE8       29.69F
FORT DRUM      NOT AVBL
OGDENSBURG     FAIR      63  56  78 CALM      29.74S
MASSENA        CLOUDY    62  54  74 NE14      29.77S
SARANAC LAKE   CLOUDY    59  42  53 E13G22    29.76F
PLATTSBURGH    CLOUDY    60  53  77 SE5       29.81S
$$

NYZ001>004-010>016-019>021-085-251400-
WEST


CITY           SKY/WX    TMP DP  RH WIND       PRES   REMARKS
NIAGARA FALLS  HVY RAIN  58  53  84 E9        29.54F
BUFFALO        RAIN      56  53  90 E10       29.55S FOG
DUNKIRK        RAIN      56  54  93 E5        29.52S FOG
JAMESTOWN      CLOUDY    52  48  87 SE6       29.52F
WELLSVILLE     RAIN      52  50  93 E9        29.55F FOG
ROCHESTER      RAIN      56  54  93 E13       29.61S FOG
PENN YAN       LGT RAIN  55  50  83 VRB3      29.61F
$$

             KEY
       WCI = WIND CHILL INDEX
       VSB = VISIBILITY
       HX  = HEAT INDEX
$$




USA.gov is the U.S. government's official web portal to all federal, state and local government web resources and services.